Miscellaneous Local Product
Issued by NWS Hastings, NE

Home | Current Version | Previous Version | Graphics & Text | Print | Product List | Glossary On
Versions: 1 2 3 4 5 6 7 8 9 10 11 12 13 14 15 16 17 18 19 20 21 22 23 24 25 26 27 28 29 30 31 32 33 34 35 36 37 38 39 40 41 42 43 44 45 46 47 48 49 50
000
AXUS43 KGID 261402
MISGRI

GID CWA HOURLY WEATHER ROUNDUP
NATIONAL WEATHER SERVICE HASTINGS NE
800 AM CST THU FEB 26 2015

NOTE: "FAIR" INDICATES FEW OR NO CLOUDS BELOW 12,000 FEET WITH NO
SIGNIFICANT WEATHER AND/OR OBSTRUCTIONS TO VISIBILITY.

...SOUTH CENTRAL NEBRASKA...

CITY           SKY/WX    TMP DP  RH WIND       PRES   REMARKS
GRAND ISLAND   CLEAR      2  -6  69 N14       30.46R WCI -16
HASTINGS       CLEAR      3  -4  72 N16       30.43R WCI -16
KEARNEY        CLEAR      3  -4  72 N14       30.43R WCI -15
ORD            PTCLDY     1  -6  72 N13       30.43R WCI -17
YORK             N/A      1  -4  78 N16G25    30.45R WCI -18
AURORA         CLEAR      1  -6  71 N17       30.44R WCI -19
LEXINGTON      CLEAR      2  -2  83 NW7       30.41R WCI -10
HOLDREGE       CLEAR      4  -2  74 N14       30.40R WCI -13
HEBRON         CLEAR      5  -5  64 N15G24    30.46R WCI -13

...NEBRASKA PANHANDLE...

CITY           SKY/WX    TMP DP  RH WIND       PRES   REMARKS
CHADRON        LGT SNOW   7   1  76 NE7       30.37R WCI  -5
ALLIANCE       MOCLDY     6   1  80 N12       30.28R WCI  -9
SCOTTSBLUFF    CLOUDY     8   2  76 N9        30.29R WCI  -5
SIDNEY         CLOUDY    10   4  76 NE5       30.25R WCI   2

...WESTERN AND NORTH CENTRAL NEBRASKA...

CITY           SKY/WX    TMP DP  RH WIND       PRES   REMARKS
VALENTINE      CLOUDY    -1  -6  79 N7        30.42S WCI -14
AINSWORTH      CLEAR     -2  -6  82 N9        30.41S WCI -17
ONEILL         CLEAR     -4  -8  84 NW8       30.45R WCI -19
BROKEN BOW     CLEAR      4  -3  73 N9        30.40R WCI -10
IMPERIAL         N/A     10   0  63 NE15      30.33S WCI  -7
NORTH PLATTE   CLEAR      5  -2  72 N7        30.39R WCI  -7
MCCOOK         CLEAR     10   3  73 CALM      30.39R

...EASTERN NEBRASKA...

CITY           SKY/WX    TMP DP  RH WIND       PRES   REMARKS
NORFOLK        CLEAR     -1  -7  75 N15       30.46R WCI -21
SO SIOUX CITY  CLEAR     -2  -9  72 NW16      30.49R WCI -23
TEKAMAH        CLEAR      1  -7  68 N16       30.50R WCI -19
COLUMBUS       CLEAR      0 -15  50 N14       30.48R WCI -19
ALBION         FAIR      -1  -8  72 NW7       30.45R WCI -14
OMAHA EPPLEY   PTCLDY     2  -5  72 N18       30.47R WCI -19
OFFUTT AFB     FAIR       2  -6  68 NW13      30.47R WCI -15
MILLARD        CLEAR      2  -6  69 NW10G22   30.47R WCI -13
LINCOLN        CLEAR      3  -5  69 N20       30.49R WCI -18
NEBRASKA CITY  CLEAR      2  -7  65 N15G21    30.43R WCI -16
BEATRICE       CLEAR      3  -3  75 N15       30.45R WCI -15
FALLS CITY     FAIR       5  -4  66 N13G26    30.44R WCI -12

...NORTHERN KANSAS...

CITY           SKY/WX    TMP DP  RH WIND       PRES   REMARKS
GOODLAND       CLOUDY    13   7  77 NE12      30.29S WCI  -1
HILL CITY      FAIR      10   1  67 NE10      30.42R WCI  -4
NORTON         SUNNY      9   0  66 N12       30.39S WCI  -6
PHILLIPSBURG   CLEAR     10   1  67 N10       30.45R WCI  -3
SMITH CENTER   CLEAR      7   1  78 N20G25    30.45R WCI -13
BELOIT         CLEAR      9   1  72 N20       30.46S WCI -11
HAYS           FAIR      10  -6  48 N17       30.41R WCI  -7
RUSSELL        CLEAR      8   2  76 N13       30.42R WCI  -8
CONCORDIA      FAIR       6  -3  66 N14G24    30.45R WCI -11
SALINA         PTCLDY    10  -1  61 N18       30.46R WCI  -8
TOPEKA         SUNNY     10   1  67 NW15G24   30.44R WCI  -7



USA.gov is the U.S. government's official web portal to all federal, state and local government web resources and services.